Weather History for KTKC - October, 2012

Change the Weather History Date:

Thursday, October 11, 2012

  Actual Average (KMML) Record (KMML)
Temperature  
Mean Temperature 42 °F -  
Max Temperature 54 °F 62 °F 84 °F (1974)
Min Temperature 30 °F 38 °F 20 °F (1987)
Degree Days  
Heating Degree Days 24    
Moisture  
Dew Point 26 °F    
Average Humidity 55    
Maximum Humidity 76    
Minimum Humidity 34    
Precipitation  
Precipitation 0.00 in - - ()
Sea Level Pressure  
Sea Level Pressure 30.14 in    
Wind  
Wind Speed 15 mph (NNW)    
Max Wind Speed 23 mph    
Max Gust Speed 30 mph    
Visibility 10 miles    
Events      
Averages and records for this station are not official NWS values.
T = Trace of Precipitation, MM = Missing Value Source: NWS Daily Summary

Daily Weather History Graph

Daily Weather History Graph

Search for Another Location

Airport or City:

Trip Planner

Search our weather history database for the weather conditions in past years. The results will help you decide how hot, cold, wet, or windy it might be!

Date:

Astronomy

Oct. 11, 2012 Rise Set
Actual Time 7:32 AM CDT 6:44 PM CDT
Civil Twilight 7:03 AM CDT 7:13 PM CDT
Nautical Twilight 6:30 AM CDT 7:46 PM CDT
Astronomical Twilight 5:56 AM CDT 8:20 PM CDT
Moon 3:03 AM CDT (10/11) 4:28 PM CDT (10/11)
Length of Visible Light 12h 09m
Length of Day
11h 11m
Waning Crescent, 18% of the Moon is Illuminated
Oct 11
Waning Crescent
Oct 15
New
Oct 21
First Quarter
Oct 29
Full
Nov 6
Last Quarter

Hourly Weather History & Observations

Time (CDT) Temp. Windchill Dew Point Humidity Pressure Visibility Wind Dir Wind Speed Gust Speed Precip Events Conditions
12:13 AM 52.2 °F - 28.4 °F 40% 29.83 in 10.0 mi SSW 19.6 mph 25.3 mph N/A   Clear
12:34 AM 52.2 °F - 28.6 °F 40% 29.83 in 10.0 mi SSW 19.6 mph 25.3 mph N/A   Clear
12:54 AM 53.4 °F - 28.4 °F 38% 29.82 in 10.0 mi SW 20.7 mph 29.9 mph N/A   Clear
1:14 AM 53.8 °F - 28.6 °F 38% 29.82 in 10.0 mi SW 21.9 mph 29.9 mph N/A   Clear
1:34 AM 53.6 °F - 28.9 °F 39% 29.82 in 10.0 mi SW 23.0 mph 28.8 mph N/A   Clear
1:54 AM 53.4 °F - 29.1 °F 39% 29.83 in 10.0 mi SW 19.6 mph 29.9 mph N/A   Clear
2:14 AM 53.2 °F - 29.3 °F 40% 29.83 in 10.0 mi SW 20.7 mph 29.9 mph N/A   Clear
2:54 AM 53.6 °F - 30.2 °F 41% 29.87 in 10.0 mi West 12.7 mph 18.4 mph N/A   Clear
3:14 AM 52.9 °F - 30.2 °F 42% 29.88 in 10.0 mi West 9.2 mph - N/A   Clear
3:34 AM 51.8 °F - 30.6 °F 44% 29.89 in 10.0 mi West 9.2 mph - N/A   Clear
3:54 AM 50.5 °F - 30.7 °F 47% 29.90 in 10.0 mi WNW 8.1 mph - N/A   Clear
4:14 AM 49.6 °F - 31.6 °F 50% 29.91 in 10.0 mi NW 15.0 mph 18.4 mph N/A   Clear
4:34 AM 46.0 °F 40.6 °F 28.4 °F 50% 29.94 in 10.0 mi NNW 11.5 mph - N/A   Clear
4:54 AM 43.9 °F 37.5 °F 29.8 °F 58% 29.94 in 10.0 mi NNW 12.7 mph - N/A   Clear
5:14 AM 42.8 °F 35.1 °F 31.5 °F 64% 29.96 in 10.0 mi NW 16.1 mph 20.7 mph N/A   Clear
5:34 AM 41.7 °F 34.1 °F 32.0 °F 68% 29.98 in 10.0 mi NNW 15.0 mph 21.9 mph N/A   Clear
5:54 AM 41.0 °F 32.5 °F 32.0 °F 70% 29.99 in 10.0 mi NNW 17.3 mph 24.2 mph N/A   Clear
6:14 AM 40.6 °F 32.3 °F 32.0 °F 71% 30.01 in 10.0 mi NNW 16.1 mph 21.9 mph N/A   Clear
6:34 AM 40.1 °F 31.3 °F 32.0 °F 73% 30.02 in 10.0 mi North 17.3 mph 24.2 mph N/A   Clear
6:54 AM 39.9 °F 32.1 °F 32.0 °F 73% 30.04 in 10.0 mi North 13.8 mph - N/A   Clear
7:14 AM 39.6 °F 32.1 °F 32.0 °F 74% 30.05 in 10.0 mi North 12.7 mph - N/A   Clear
7:34 AM 39.2 °F 31.2 °F 32.0 °F 75% 30.06 in 10.0 mi North 13.8 mph - N/A   Scattered Clouds
7:54 AM 38.8 °F 30.4 °F 32.0 °F 76% 30.08 in 10.0 mi North 15.0 mph - N/A   Mostly Cloudy
8:14 AM 38.8 °F 30.8 °F 32.0 °F 76% 30.09 in 10.0 mi North 13.8 mph 18.4 mph N/A   Mostly Cloudy
8:34 AM 39.2 °F 30.5 °F 32.0 °F 75% 30.11 in 10.0 mi North 16.1 mph - N/A   Mostly Cloudy
8:54 AM 39.4 °F 31.8 °F 32.0 °F 75% 30.12 in 10.0 mi North 12.7 mph - N/A   Scattered Clouds
9:14 AM 39.4 °F 32.3 °F 32.0 °F 75% 30.14 in 10.0 mi North 11.5 mph - N/A   Scattered Clouds
9:34 AM 39.9 °F 32.5 °F 32.0 °F 73% 30.15 in 10.0 mi North 12.7 mph 17.3 mph N/A   Scattered Clouds
9:54 AM 40.1 °F 32.7 °F 31.6 °F 72% 30.15 in 10.0 mi North 12.7 mph - N/A   Scattered Clouds
10:14 AM 41.0 °F 33.1 °F 31.6 °F 69% 30.17 in 10.0 mi North 15.0 mph 20.7 mph N/A   Scattered Clouds
10:34 AM 41.5 °F 34.2 °F 31.3 °F 67% 30.18 in 10.0 mi North 13.8 mph - N/A   Mostly Cloudy
10:54 AM 41.9 °F 34.6 °F 31.1 °F 66% 30.19 in 10.0 mi North 13.8 mph - N/A   Mostly Cloudy
11:14 AM 42.3 °F 35.5 °F 31.1 °F 65% 30.20 in 10.0 mi North 12.7 mph - N/A   Scattered Clouds
11:34 AM 42.8 °F 36.2 °F 31.6 °F 65% 30.21 in 10.0 mi North 12.7 mph 19.6 mph N/A   Scattered Clouds
11:54 AM 42.8 °F 36.2 °F 31.3 °F 64% 30.21 in 10.0 mi North 12.7 mph - N/A   Mostly Cloudy
12:14 PM 43.5 °F 35.8 °F 30.6 °F 60% 30.21 in 10.0 mi NNE 17.3 mph - N/A   Overcast
12:54 PM 43.7 °F 36.3 °F 29.3 °F 57% 30.23 in 10.0 mi NNW 16.1 mph - N/A   Mostly Cloudy
1:14 PM 44.4 °F 37.2 °F 28.2 °F 53% 30.22 in 10.0 mi North 16.1 mph - N/A   Mostly Cloudy
1:34 PM 44.1 °F 37.4 °F 26.2 °F 50% 30.23 in 10.0 mi North 13.8 mph 25.3 mph N/A   Overcast
1:54 PM 43.9 °F 36.5 °F 26.2 °F 50% 30.23 in 10.0 mi North 16.1 mph - N/A   Overcast
2:14 PM 44.1 °F 36.8 °F 25.3 °F 48% 30.23 in 10.0 mi North 16.1 mph 19.6 mph N/A   Overcast
2:34 PM 43.2 °F 35.9 °F 23.0 °F 45% 30.24 in 10.0 mi North 15.0 mph 19.6 mph N/A   Overcast
2:53 PM 43.7 °F 36.9 °F 23.5 °F 45% 30.25 in 10.0 mi North 13.8 mph 19.6 mph N/A   Overcast
3:14 PM 43.5 °F 36.4 °F 22.6 °F 44% 30.26 in 10.0 mi North 15.0 mph - N/A   Overcast
3:54 PM 44.8 °F 38.7 °F 22.5 °F 41% 30.27 in 10.0 mi NNW 12.7 mph - N/A   Mostly Cloudy
4:14 PM 44.4 °F 37.9 °F 21.0 °F 39% 30.27 in 10.0 mi NNW 13.8 mph 19.6 mph N/A   Mostly Cloudy
4:34 PM 43.9 °F 36.8 °F 19.8 °F 38% 30.27 in 10.0 mi North 15.0 mph 21.9 mph N/A   Mostly Cloudy
5:14 PM 43.5 °F 37.5 °F 18.5 °F 37% 30.27 in 10.0 mi NNW 11.5 mph 17.3 mph N/A   Scattered Clouds
5:53 PM 42.8 °F 36.2 °F 16.3 °F 34% 30.28 in 10.0 mi North 12.7 mph - N/A   Clear
6:33 PM 41.2 °F 35.5 °F 20.8 °F 44% 30.29 in 10.0 mi North 9.2 mph - N/A   Clear
6:54 PM 40.1 °F 35.3 °F 21.2 °F 47% 30.30 in 10.0 mi NNW 6.9 mph - N/A   Clear
7:14 PM 39.0 °F 34.8 °F 21.2 °F 49% 30.30 in 10.0 mi NNW 5.8 mph - N/A   Clear
7:34 PM 37.4 °F 32.8 °F 20.7 °F 51% 30.31 in 10.0 mi NW 5.8 mph - N/A   Clear
7:54 PM 36.5 °F 31.0 °F 20.7 °F 53% 30.33 in 10.0 mi NW 6.9 mph - N/A   Clear
8:13 PM 35.6 °F 30.7 °F 19.9 °F 53% 30.34 in 10.0 mi NW 5.8 mph - N/A   Clear
8:34 PM 34.7 °F 29.6 °F 18.5 °F 52% 30.35 in 10.0 mi NNW 5.8 mph - N/A   Clear
8:54 PM 33.6 °F 28.4 °F 17.6 °F 52% 30.35 in 10.0 mi NNW 5.8 mph - N/A   Clear
9:14 PM 33.3 °F 28.9 °F 17.4 °F 52% 30.36 in 10.0 mi NNW 4.6 mph - N/A   Clear
9:54 PM 32.0 °F 26.4 °F 17.1 °F 54% 30.37 in 10.0 mi NW 5.8 mph - N/A   Clear
10:34 PM 31.8 °F 27.3 °F 17.2 °F 55% 30.39 in 10.0 mi NW 4.6 mph - N/A   Clear
10:54 PM 30.2 °F 25.4 °F 17.2 °F 59% 30.39 in 10.0 mi WNW 4.6 mph - N/A   Clear
11:14 PM 30.6 °F 25.8 °F 17.6 °F 59% 30.40 in 10.0 mi West 4.6 mph - N/A   Clear
11:34 PM 31.3 °F 26.6 °F 17.4 °F 57% 30.41 in 10.0 mi WNW 4.6 mph - N/A   Clear
11:54 PM 32.2 °F 26.7 °F 17.4 °F 55% 30.41 in 10.0 mi WNW 5.8 mph - N/A   Clear